Location: Cheyres
(46.8153°N, 6.7877°E)
Time: 03:26:57
(UTC+00:00)

USA 306 - Pass Details

Date: 11 May 2021
Orbit: 565 x 575 km, 54.0° (Epoch: 11 May)

Event Time Altitude Azimuth Distance (km) Brightness Sun altitude
Rises 20:41:06 0° 301° (WNW) 2,773 7.9 -14.9°
Reaches altitude 10° 20:43:21 10° 304° (WNW) 1,875 6.8 -15.1°
Maximum altitude 20:47:37 72° 29° (NNE) 603 3.0 -15.6°
Enters shadow 20:49:59 26° 109° (ESE) 1,155 4.0 -15.8°
